Regional Weather Roundup
Issued by NWS

Current Version | Previous Version | Text Only | Print | Product List | Glossary On
Versions: 1 2 3 4 5 6 7 8 9 10 11 12 13 14 15 16 17 18 19 20 21 22 23 24 25 26 27 28 29 30 31 32 33 34 35 36 37 38 39 40 41 42 43 44 45 46 47 48 49 50
000
ASUS45 KABQ 301201
RWRNM
WEATHER ROUNDUP FOR NEW MEXICO
NATIONAL WEATHER SERVICE ALBUQUERQUE NM
600 AM MDT TUE SEP 30 2014

NOTE: "FAIR" MEANS FEW OR NO CLOUDS BELOW 12,000 FEET AGL WITH NO
       SIGNIFICANT WEATHER OR OBSTRUCTIONS TO VISION.

      THIS PRODUCT IS RELEASED AS TWO VERSIONS.  ONE VERSION NEAR
      THE TOP OF THE HOUR CONTAINING PRELIMINARY DATA FROM ALBUQUERQUE
      AND OTHER STATIONS.  A FINAL VERSION WITH ADDITIONAL DATA IS
      ISSUED ABOUT 10 MINUTES AFTER THE HOUR.

NMZ501-503-504-510>518-301300-
NORTHWEST PLATEAU/NORTHCENTRAL MOUNTAINS

CITY           SKY/WX    TMP DP  RH WIND       PRES   REMARKS
FARMINGTON     CLEAR     41  38  89 E6        30.06R
6HR MIN TEMP:  41; 6HR MAX TEMP:  49;

LOS ALAMOS     PTCLDY    45  30  56 NE3       30.10S
SANTA FE       CLEAR     44  33  65 N10       30.05F
6HR MIN TEMP:  42; 6HR MAX TEMP:  49;

TAOS           CLEAR     34  28  80 CALM      30.10F
ANGEL FIRE     FAIR      40  28  63 W10G23    30.07F WCI  33

$$
NMZ402-403-502-505>509-301300-
WESTCENTRAL MOUNTAINS/SOUTHWEST MOUNTAINS

CITY           SKY/WX    TMP DP  RH WIND       PRES   REMARKS
GALLUP         CLEAR     37  34  89 CALM      30.10S
6HR MIN TEMP:  36; 6HR MAX TEMP:  43;

GRANTS         CLEAR     32  30  93 NW5       30.12S WCI  27
SILVER CITY    CLEAR     50  41  71 N10       30.06S

$$
NMZ407-409-411-412-301300-
SOUTHERN DESERTS

CITY           SKY/WX    TMP DP  RH WIND       PRES   REMARKS
LORDSBURG      FAIR      55  36  47 MISG      29.99S
DEMING         CLEAR     57  47  69 W7        30.00R
6HR MIN TEMP:  56; 6HR MAX TEMP:  67;

LAS CRUCES     CLEAR     60  51  72 W6        30.00R
HOLLOMAN AFB   CLEAR     62  55  80 CALM      29.94R
ALAMOGORDO     PTCLDY    63  55  77 S7        29.95S
T OR C         CLEAR     57  42  57 NW7       30.00R
6HR MIN TEMP:  57; 6HR MAX TEMP:  65;


$$
NMZ519>523-301300-
CENTRAL VALLEYS/CENTRAL HIGHLANDS

CITY           SKY/WX    TMP DP  RH WIND       PRES   REMARKS
ALBUQUERQUE    CLEAR     52  36  54 NE5       30.05R
6HR MIN TEMP:  47; 6HR MAX TEMP:  61;

DOUBLE EAGLE   CLEAR     46  32  57 NW12      30.06S
CLINES CORNERS CLEAR     42  33  70 W13       30.05S
6HR MIN TEMP:  38; 6HR MAX TEMP:  48;

BELEN          NOT AVBL
SOCORRO        FAIR      52  38  60 N5        30.02S
6HR MIN TEMP:  52; 6HR MAX TEMP:  64;


$$
NMZ524>526-539-540-301300-
SOUTHCENTRAL MOUNTAINS

CITY           SKY/WX    TMP DP  RH WIND       PRES   REMARKS
RUIDOSO        NOT AVBL

$$
NMZ527>531-301300-
NORTHEAST HIGHLANDS/NORTHEAST PLAINS

CITY           SKY/WX    TMP DP  RH WIND       PRES   REMARKS
LAS VEGAS      CLEAR     41  31  67 VRB3      30.01F
6HR MIN TEMP:  38; 6HR MAX TEMP:  50;

RATON          CLEAR     45  29  53 S3        29.95F
6HR MIN TEMP:  41; 6HR MAX TEMP:  54;

CLAYTON        CLEAR     51  41  68 SW13      29.90S
6HR MIN TEMP:  51; 6HR MAX TEMP:  59;


$$
NMZ532>537-301300-
EASTCENTRAL PLAINS

CITY           SKY/WX    TMP DP  RH WIND       PRES   REMARKS
TUCUMCARI      CLEAR     58  52  80 SW9       29.89S
6HR MIN TEMP:  58; 6HR MAX TEMP:  65;

CANNON AFB     NOT AVBL
CLOVIS AIRPORT   N/A     54  52  94 S3        29.96S

$$
NMZ028-029-538-301300-
SOUTHEAST PLAINS

CITY           SKY/WX    TMP DP  RH WIND       PRES   REMARKS
ROSWELL        PTCLDY    61  54  77 NW8       29.92R
6HR MIN TEMP:  59; 6HR MAX TEMP:  67;

CARLSBAD       CLEAR     61  58  90 S5        29.89R
6HR MIN TEMP:  61; 6HR MAX TEMP:  69;

HOBBS          CLEAR     59  59 100 S6        29.93


$$


USA.gov is the U.S. government's official web portal to all federal, state and local government web resources and services.